Temperature
20 21 22 23 22 21 21 19 20 21 20 22 21 20 21 22 22 22 23 23 23 23 23 23 22 22 21 21 21 20 20 19 19 19 18 18 17 17 17 17 16 16 16 16
21 21 22 23 22 22 22 21 21 22 21 20 21 21 21 21 22 22 23 23 23 23 23 23 22 22 21 21 20 20 20 19 19 19 18 18 17 17 17 16 16 16 16 15
19 21 22 22 22 22 22 22 21 22 22 20 19 20 21 22 22 23 23 23 23 23 23 23 22 22 21 21 20 20 20 19 19 18 18 18 17 17 16 16 16 16 15 15
17 21 21 21 21 22 22 22 21 21 21 20 21 22 23 23 23 23 23 23 23 23 23 22 22 22 21 21 20 20 19 19 18 18 18 17 17 16 16 16 16 16 15 15
15 18 20 21 21 22 22 22 21 20 20 20 21 21 21 23 23 24 24 23 23 23 23 22 22 21 21 20 20 19 19 19 18 18 18 17 17 16 16 16 15 15 15 15
15 19 19 21 22 22 22 21 21 20 19 19 20 19 21 23 23 23 23 23 23 22 22 22 21 21 21 20 20 19 19 19 18 18 17 17 17 16 16 15 15 15 15 14
16 18 18 19 20 21 22 21 22 21 21 20 20 22 24 24 23 23 23 23 22 22 22 22 21 20 20 20 20 20 19 18 18 17 17 17 16 16 15 15 15 14 14 14
15 18 19 19 19 20 20 21 21 21 22 21 22 23 23 23 23 23 22 22 22 22 22 21 21 20 20 20 20 19 19 18 18 17 17 16 16 15 15 15 14 14 14 14
15 16 18 18 19 20 21 21 21 22 22 22 22 22 22 23 22 22 22 22 21 21 21 21 21 20 20 20 19 19 18 18 17 17 16 16 16 15 15 15 14 14 14 14
15 16 17 18 19 20 21 21 22 22 22 22 22 22 22 22 22 22 21 21 21 20 20 21 20 20 19 19 19 18 18 17 17 16 16 15 15 15 15 14 14 14 14 14
15 16 17 18 19 20 21 21 22 22 22 22 22 21 22 21 21 21 21 20 20 20 20 20 20 19 19 19 18 18 17 17 16 16 15 15 15 15 14 14 14 14 14 14
15 16 16 18 19 20 21 21 21 21 21 21 21 21 21 21 21 21 20 20 19 19 19 19 19 19 18 18 18 18 17 17 16 16 15 15 15 14 14 14 14 14 13 13
17 17 18 18 19 20 20 20 21 21 20 20 20 21 21 20 20 20 20 20 19 19 19 19 19 19 18 18 18 17 17 17 16 16 15 15 14 14 14 14 14 13 13 13
17 17 17 18 19 19 20 20 20 20 20 20 20 20 20 20 20 20 19 19 19 19 19 18 18 18 18 18 17 17 17 16 16 16 15 15 14 14 14 14 14 13 13 13
17 18 18 18 18 18 19 19 19 19 19 19 19 19 19 19 19 19 19 19 18 18 18 18 18 18 17 17 17 17 16 16 16 15 15 15 14 14 14 14 14 13 13 13
17 17 18 18 18 18 18 18 18 18 18 18 18 18 18 19 18 18 18 18 18 18 18 18 18 17 17 17 16 16 16 16 15 15 15 14 14 14 14 14 13 13 13 13
16 16 17 17 17 17 17 17 17 17 17 17 18 18 18 18 18 17 17 17 17 17 17 17 17 17 17 16 16 16 16 15 15 15 15 14 14 14 14 14 13 13 13 13
17 17 17 17 17 17 17 17 17 17 17 17 17 17 17 17 17 17 17 17 17 17 17 17 17 16 16 16 16 16 16 15 15 15 15 14 14 14 14 13 13 13 13 12
16 16 16 16 17 16 16 16 16 16 17 17 17 17 17 17 17 16 16 16 16 16 17 16 16 16 16 16 15 15 15 15 15 15 14 14 14 14 13 13 13 13 13 12
16 16 16 16 16 16 16 16 16 16 16 16 16 16 16 16 16 16 16 16 16 16 16 16 16 15 15 15 15 15 15 15 15 14 14 14 14 13 13 13 13 13 12 12
15 15 15 16 16 16 16 16 16 16 16 16 16 16 16 16 16 16 15 15 15 15 15 15 15 15 15 15 15 15 15 14 14 14 14 14 13 13 13 13 13 12 12 12
15 15 15 15 15 15 15 15 15 16 16 16 15 15 15 15 15 15 15 15 15 15 15 15 15 15 15 15 14 14 14 14 14 13 13 13 13 13 13 12 12 12 12 12
14 14 14 14 14 15 15 15 15 15 15 15 15 15 15 15 15 15 15 15 15 15 15 15 15 14 14 14 14 14 14 13 13 13 13 13 13 13 12 12 12 12 11 11
13 14 14 14 14 14 14 14 14 14 14 14 14 14 14 15 14 14 14 14 14 14 14 14 14 14 14 14 14 13 13 13 13 13 13 12 12 12 12 12 11 11 11 11
13 13 13 13 14 14 14 14 14 14 14 14 14 14 14 14 14 14 14 14 14 14 14 14 14 13 13 13 13 13 13 13 12 12 12 12 12 12 11 11 11 10 10 10
12 13 13 13 13 13 13 13 13 13 13 13 14 14 14 14 14 14 14 13 13 13 13 13 13 13 13 13 13 12 12 12 12 12 12 11 11 11 11 11 10 10 10 10
12 12 12 12 12 12 12 12 13 13 13 13 13 13 13 13 13 13 13 13 13 13 13 12 12 12 12 12 12 12 11 11 11 11 11 11 11 10 10 10 10 10 10 9
Wind_Speed
5 5 5 5 7 8 6 9 9 9 9 10 8 6 5 5 5 6 6 6 7 7 6 6 7 7 7 6 6 7 7 6 5 4 4 4 4 4 4 4 4 3 3 3
1 2 4 3 7 9 7 7 6 5 9 8 4 3 5 6 7 7 7 7 7 7 7 8 8 8 8 7 7 8 7 6 5 5 5 4 4 4 4 4 3 4 3 3
4 2 2 4 7 8 6 6 8 8 9 4 4 8 10 10 9 9 8 7 7 8 8 8 8 8 9 8 8 8 7 6 6 6 5 5 5 4 4 3 3 4 3 3
4 4 6 9 4 6 6 6 7 6 6 8 8 7 6 6 8 8 7 7 6 6 6 6 6 7 7 8 8 8 7 6 6 6 6 5 5 4 3 3 3 2 2 2
5 5 5 6 3 6 5 4 6 6 5 4 3 3 1 4 6 7 7 6 6 6 6 6 7 9 9 9 8 8 7 7 6 6 6 6 6 5 3 3 3 2 2 3
5 6 8 8 3 2 4 4 5 7 7 6 7 4 6 6 6 5 5 5 6 6 6 7 6 8 10 10 9 8 8 7 6 6 7 7 6 5 3 3 3 3 3 2
5 4 7 6 5 2 6 8 5 7 8 10 9 8 5 5 5 5 5 6 6 6 6 6 7 8 9 9 9 8 7 7 6 6 7 6 6 4 5 4 4 3 3 2
5 4 7 4 2 6 7 4 3 6 8 8 6 3 4 6 6 6 6 5 6 6 5 5 7 9 8 8 8 7 8 7 7 6 6 6 6 5 5 5 5 4 3 2
8 7 5 3 4 4 3 3 3 4 5 7 5 3 3 5 6 6 6 5 5 5 4 4 6 8 9 7 7 8 8 8 7 6 5 6 7 7 5 5 4 3 3 2
2 4 4 4 3 2 2 3 3 3 4 6 6 5 5 5 5 5 5 5 5 5 4 4 4 5 6 7 8 9 9 8 7 7 6 5 4 5 5 5 5 4 3 3
1 3 2 3 2 2 1 1 2 2 2 5 6 5 5 4 4 4 4 5 6 7 6 5 5 5 5 8 9 9 9 8 7 7 7 6 4 4 5 4 5 6 5 5
5 6 4 4 3 1 0 1 2 3 3 3 5 5 4 4 4 4 5 5 5 6 6 5 5 5 6 8 10 10 9 8 7 6 6 6 5 3 2 2 4 5 5 5
5 3 4 4 2 1 0 1 2 4 4 3 2 3 3 3 3 4 4 4 5 6 6 6 6 6 7 8 10 10 9 9 7 7 7 7 6 6 4 1 2 3 4 5
4 2 1 1 1 2 2 2 3 4 3 3 3 3 3 2 3 4 4 4 4 5 6 6 6 6 6 8 9 9 9 9 8 7 7 7 7 6 5 5 3 2 2 3
2 2 3 1 1 3 3 4 4 3 3 3 3 3 4 4 4 4 3 4 5 5 5 6 6 5 6 8 9 9 8 7 7 6 6 6 6 5 5 5 5 3 2 1
1 2 2 3 2 2 3 3 2 0 1 1 2 2 2 3 3 3 3 4 6 6 6 6 6 6 6 8 8 7 7 9 8 6 6 6 6 5 5 5 5 5 5 4
2 0 1 1 1 1 1 0 1 1 1 1 2 2 2 3 2 2 2 3 3 4 5 6 5 5 6 7 8 6 6 7 9 7 6 6 6 6 6 6 6 6 5 5
3 4 3 4 4 2 1 1 2 2 3 3 2 2 3 4 5 4 3 3 2 1 2 4 5 5 6 7 7 6 6 6 6 6 5 5 5 5 5 6 6 6 4 4
1 2 2 2 2 2 2 2 2 3 2 2 3 3 3 3 4 4 4 5 5 5 4 4 6 6 6 7 7 6 6 6 5 5 5 6 6 5 5 6 5 5 5 4
1 0 1 1 1 2 2 2 2 2 2 2 3 3 2 2 3 4 5 5 5 4 4 6 6 6 6 6 7 5 6 6 6 5 5 5 5 5 5 5 5 5 5 5
1 1 2 1 1 1 1 2 2 2 2 2 3 3 3 2 2 3 4 3 3 3 4 6 6 5 5 6 7 5 5 5 5 5 5 5 5 5 5 5 5 5 5 5
1 2 1 1 1 1 1 1 2 2 2 2 2 2 2 2 2 2 2 3 2 4 5 4 5 6 7 7 5 5 5 5 5 5 5 5 5 5 5 5 5 4 4 4
2 1 2 1 0 1 1 0 1 2 2 2 2 2 2 2 2 2 2 1 2 4 4 4 5 8 9 6 5 5 5 5 5 5 5 5 5 5 5 5 4 4 3 3
2 2 2 1 1 2 2 2 1 1 1 1 1 2 3 2 1 1 1 2 3 4 3 4 7 8 8 5 5 5 5 5 4 4 4 4 4 4 4 4 4 3 3 4
1 1 1 1 1 1 1 1 1 1 1 1 0 0 1 2 2 2 2 3 4 4 3 4 7 7 5 4 5 4 4 4 4 4 4 4 4 4 4 4 4 4 3 3
2 2 1 1 1 1 1 0 0 0 1 1 1 1 1 2 3 3 2 3 4 5 3 3 4 5 4 4 5 5 4 4 4 4 4 4 4 4 4 4 4 3 3 3
2 2 2 2 2 1 1 1 0 1 0 1 1 0 1 2 3 3 4 3 4 4 3 3 3 3 3 4 4 4 4 4 3 4 4 4 3 3 4 4 3 3 3 2
Wind_Direction
208 209 176 174 177 173 168 172 175 218 224 244 233 218 205 186 165 158 164 166 167 166 168 166 165 166 167 163 157 152 146 149 155 146 131 121 115 111 106 104 103 98 89 73
200 223 180 181 191 185 185 176 191 202 242 246 222 170 178 186 178 179 180 182 180 173 169 173 174 172 169 164 157 151 150 153 147 137 132 129 125 118 111 105 100 91 82 76
202 251 97 233 207 186 186 188 172 196 228 204 182 196 197 194 189 194 194 186 182 184 183 181 176 170 171 164 152 150 150 149 147 145 143 144 139 125 120 116 106 96 87 84
147 131 206 240 234 188 181 204 197 207 219 199 205 207 200 191 187 195 193 187 184 180 179 172 162 158 153 149 150 150 150 152 154 154 151 146 139 135 127 115 108 101 94 96
134 169 247 287 225 173 166 233 213 205 211 191 141 87 278 210 194 198 190 177 175 174 169 161 159 155 146 147 151 152 159 164 164 160 158 156 156 152 144 132 115 101 95 96
130 152 210 234 254 215 131 249 234 193 183 159 129 157 240 217 187 173 161 160 159 152 146 151 156 152 149 155 158 169 174 173 165 159 158 162 161 153 143 135 127 120 98 88
148 179 243 248 270 134 161 229 231 190 185 169 180 205 212 173 165 155 157 159 153 148 151 159 153 153 160 162 174 177 166 157 154 158 159 156 146 141 138 130 123 116 106 82
148 165 238 261 136 167 213 249 215 196 191 187 197 191 154 150 151 147 144 148 152 151 157 155 152 156 169 180 175 160 153 152 154 155 156 151 144 140 138 136 133 128 119 94
181 201 233 243 219 244 216 224 223 196 189 178 182 183 162 154 154 151 148 150 146 149 151 150 157 166 176 181 158 151 151 156 156 152 149 151 152 150 144 145 148 149 148 147
189 247 255 261 265 277 240 226 229 191 173 171 176 170 157 152 155 151 156 154 144 144 156 168 169 173 174 158 152 153 158 160 158 156 153 148 148 155 158 163 165 166 171 179
200 262 304 309 302 311 332 60 111 109 140 165 157 160 164 163 163 160 157 161 160 165 177 186 177 174 165 159 155 157 161 163 162 163 160 155 155 166 176 184 187 181 188 186
210 220 193 242 280 299 92 128 142 119 100 130 155 162 166 166 168 163 160 162 162 167 171 177 171 168 166 165 163 161 165 169 171 169 166 164 160 145 110 165 180 185 183 181
224 232 219 240 276 303 246 168 126 127 140 137 135 147 159 166 170 159 157 161 168 171 168 171 173 177 174 167 167 169 171 173 174 174 174 175 176 175 173 123 118 158 182 191
240 198 210 237 250 354 38 64 80 84 89 111 117 121 131 134 149 155 167 175 164 155 161 167 175 187 181 169 167 171 171 175 176 179 180 182 185 185 182 183 191 209 208 203
292 208 197 209 56 48 56 75 81 71 67 76 101 122 139 149 166 176 171 159 149 151 164 170 178 190 177 169 169 172 172 175 177 178 181 183 184 184 187 190 195 196 185 181
326 54 92 88 79 67 65 71 86 84 74 85 111 140 156 152 156 156 151 157 158 169 178 178 187 187 174 172 170 172 177 176 174 178 181 183 186 189 193 196 198 201 204 197
144 87 129 143 120 77 32 305 221 226 214 191 189 167 137 125 132 158 173 173 174 181 181 180 183 174 172 174 173 175 175 178 178 180 185 188 192 196 197 198 203 206 210 196
198 203 207 199 192 184 210 267 264 238 228 217 185 165 166 167 183 201 196 158 136 194 218 194 175 171 177 178 175 173 173 178 185 186 185 190 194 194 194 199 203 203 200 190
195 209 208 195 188 182 194 222 250 253 240 199 174 185 190 194 197 198 179 170 179 205 214 189 176 175 185 185 174 172 174 175 176 179 184 184 187 191 193 197 199 197 190 185
18 74 130 138 145 185 208 224 225 247 241 191 166 167 183 208 201 186 175 191 211 208 182 169 172 179 184 181 170 171 174 174 175 176 178 182 185 188 191 194 194 192 189 189
45 50 75 84 52 279 213 206 201 224 231 172 165 183 201 217 198 170 168 204 232 183 167 169 176 182 178 170 164 167 169 172 175 178 180 181 182 183 186 189 189 192 194 194
63 66 58 56 52 343 304 211 185 187 178 157 164 173 175 192 177 161 178 208 209 165 167 174 178 174 169 163 167 166 168 173 178 179 179 180 182 185 189 190 191 193 195 194
33 41 32 16 12 335 346 358 180 169 163 169 176 186 189 182 169 169 204 229 175 168 168 172 168 160 156 156 162 163 167 174 179 180 180 180 182 183 182 181 183 183 181 183
25 28 23 2 27 57 30 2 12 74 153 194 201 190 167 150 139 192 176 154 153 154 153 154 155 152 147 149 153 158 165 170 171 170 170 171 174 176 175 175 179 186 183 182
19 31 45 37 36 22 327 332 14 54 93 100 62 87 148 158 170 172 150 141 137 135 127 133 139 142 143 145 149 153 157 159 158 159 163 166 169 170 172 175 179 182 184 188
3 360 345 337 331 309 302 329 11 17 115 103 35 36 93 121 134 134 126 125 124 128 127 125 130 133 140 144 146 147 146 147 149 155 162 164 164 164 168 175 174 175 176 179
14 12 9 360 348 323 298 294 279 294 221 174 172 20 116 122 122 124 124 124 122 121 118 114 116 123 129 130 132 132 132 135 141 148 150 150 153 156 159 158 162 161 159 157
Height
1503 1500 1501 1502 1505 1510 1513 1520 1528 1523 1519 1508 1503 1502 1503 1504 1506 1508 1510 1512 1514 1516 1520 1523 1525 1528 1530 1532 1535 1537 1539 1541 1542 1543 1544 1545 1546 1546 1546 1546 1546 1546 1546 1546
1502 1499 1498 1501 1501 1503 1505 1510 1511 1511 1511 1499 1499 1501 1502 1503 1505 1506 1508 1510 1513 1515 1518 1521 1523 1526 1528 1531 1534 1536 1538 1539 1541 1542 1543 1544 1545 1545 1546 1546 1546 1546 1546 1545
1512 1502 1500 1508 1499 1499 1500 1500 1503 1508 1502 1497 1498 1498 1498 1500 1502 1504 1506 1509 1511 1514 1517 1519 1522 1524 1527 1529 1532 1534 1536 1538 1540 1541 1542 1543 1544 1545 1545 1545 1545 1545 1545 1545
1514 1509 1519 1504 1490 1490 1493 1494 1494 1493 1492 1493 1493 1494 1496 1498 1500 1502 1505 1507 1510 1513 1516 1518 1521 1523 1526 1528 1531 1533 1535 1537 1539 1540 1541 1543 1543 1544 1545 1545 1545 1545 1545 1545
1518 1518 1510 1496 1488 1488 1492 1493 1489 1489 1489 1491 1493 1495 1496 1497 1499 1502 1504 1507 1509 1512 1514 1516 1519 1521 1524 1527 1529 1531 1533 1535 1537 1538 1540 1541 1542 1543 1544 1545 1545 1545 1545 1545
1515 1515 1516 1497 1484 1483 1488 1495 1485 1485 1486 1489 1492 1499 1495 1494 1497 1500 1503 1506 1508 1511 1513 1515 1517 1520 1522 1524 1527 1529 1532 1534 1536 1537 1538 1540 1541 1542 1543 1544 1544 1544 1545 1545
1510 1509 1503 1487 1482 1483 1499 1494 1482 1482 1483 1486 1488 1489 1489 1491 1495 1498 1501 1504 1507 1509 1511 1513 1515 1518 1520 1522 1524 1527 1530 1532 1534 1536 1537 1538 1539 1541 1542 1543 1543 1544 1544 1544
1508 1508 1503 1481 1481 1485 1485 1479 1479 1479 1480 1483 1484 1485 1487 1490 1493 1496 1499 1502 1505 1507 1509 1512 1514 1516 1519 1520 1522 1526 1528 1530 1532 1534 1535 1536 1538 1539 1540 1541 1542 1543 1543 1543
1492 1492 1481 1479 1478 1478 1478 1477 1477 1477 1479 1481 1483 1485 1486 1488 1491 1494 1497 1500 1502 1505 1508 1510 1512 1515 1516 1519 1521 1523 1526 1528 1530 1531 1533 1534 1536 1537 1538 1539 1540 1541 1542 1542
1485 1481 1478 1477 1476 1476 1476 1476 1475 1476 1478 1479 1481 1483 1486 1487 1490 1492 1495 1498 1500 1503 1505 1508 1510 1513 1515 1517 1520 1522 1524 1526 1528 1529 1531 1532 1534 1535 1536 1537 1538 1539 1540 1541
1482 1478 1476 1475 1475 1474 1474 1474 1474 1475 1477 1479 1480 1483 1485 1487 1489 1491 1494 1496 1498 1500 1503 1505 1508 1510 1513 1515 1518 1520 1522 1524 1526 1527 1529 1530 1532 1533 1534 1536 1537 1538 1539 1540
1479 1475 1475 1475 1474 1474 1474 1474 1474 1475 1477 1479 1480 1482 1484 1486 1488 1490 1492 1494 1496 1498 1501 1503 1506 1508 1511 1513 1516 1517 1519 1521 1523 1525 1526 1528 1530 1531 1533 1534 1536 1537 1538 1539
1472 1472 1473 1473 1473 1474 1474 1474 1474 1475 1476 1478 1480 1482 1483 1485 1487 1489 1491 1492 1494 1496 1498 1501 1504 1506 1508 1511 1513 1515 1517 1519 1521 1522 1524 1525 1527 1529 1530 1532 1534 1535 1536 1537
1471 1471 1472 1472 1472 1473 1474 1474 1474 1475 1476 1478 1479 1481 1482 1484 1486 1487 1489 1491 1492 1494 1496 1499 1501 1503 1506 1508 1510 1512 1514 1516 1518 1520 1521 1523 1525 1527 1528 1530 1531 1532 1533 1534
1469 1469 1470 1471 1472 1473 1473 1474 1475 1475 1476 1477 1479 1480 1482 1483 1485 1486 1488 1490 1491 1493 1495 1497 1499 1501 1503 1505 1507 1509 1511 1513 1515 1517 1519 1521 1523 1524 1526 1528 1529 1530 1531 1532
1468 1469 1469 1470 1471 1472 1473 1474 1475 1475 1476 1477 1477 1479 1480 1482 1483 1485 1486 1488 1490 1491 1493 1495 1497 1499 1501 1503 1505 1507 1509 1511 1513 1515 1517 1518 1520 1522 1523 1525 1526 1527 1528 1529
1467 1467 1468 1469 1470 1471 1473 1474 1474 1475 1475 1476 1477 1478 1479 1480 1482 1483 1485 1486 1488 1489 1490 1492 1494 1496 1499 1501 1503 1504 1506 1508 1510 1512 1514 1515 1517 1519 1520 1522 1523 1523 1525 1526
1466 1466 1467 1468 1468 1469 1471 1473 1474 1474 1475 1475 1476 1477 1478 1479 1480 1482 1483 1484 1485 1487 1489 1490 1492 1493 1496 1498 1500 1502 1503 1505 1507 1508 1510 1512 1514 1516 1517 1518 1520 1520 1521 1523
1463 1464 1465 1466 1467 1468 1469 1471 1472 1473 1473 1473 1474 1475 1476 1477 1479 1480 1481 1482 1483 1484 1486 1487 1489 1492 1494 1496 1498 1499 1500 1502 1504 1505 1507 1509 1511 1512 1514 1515 1516 1517 1519 1519
1462 1462 1463 1464 1465 1467 1468 1469 1470 1471 1472 1472 1472 1473 1474 1475 1476 1477 1479 1480 1481 1482 1483 1485 1487 1489 1491 1493 1495 1496 1498 1499 1500 1502 1504 1506 1508 1509 1511 1512 1513 1514 1515 1516
1460 1460 1461 1462 1463 1465 1466 1467 1469 1469 1470 1471 1471 1471 1472 1473 1474 1475 1476 1477 1479 1480 1482 1484 1485 1487 1489 1490 1492 1493 1495 1496 1498 1499 1501 1503 1505 1506 1508 1509 1510 1511 1512 1513
1459 1460 1461 1462 1463 1464 1465 1466 1467 1467 1468 1468 1469 1469 1470 1470 1471 1472 1473 1475 1477 1479 1480 1481 1483 1485 1486 1488 1490 1491 1492 1494 1496 1497 1499 1500 1502 1503 1505 1506 1507 1508 1509 1510
1459 1460 1461 1462 1463 1463 1464 1465 1465 1465 1466 1466 1467 1467 1468 1468 1469 1470 1471 1474 1475 1477 1478 1480 1481 1483 1484 1486 1487 1489 1490 1492 1494 1495 1496 1498 1499 1501 1502 1503 1504 1505 1506 1507
1460 1461 1461 1462 1463 1462 1462 1463 1463 1463 1464 1465 1465 1466 1467 1467 1469 1470 1471 1473 1474 1475 1476 1478 1480 1481 1483 1484 1486 1487 1488 1490 1491 1492 1494 1495 1497 1498 1499 1500 1501 1502 1503 1504
1461 1461 1461 1461 1461 1461 1461 1462 1462 1462 1463 1463 1464 1465 1466 1467 1468 1469 1470 1471 1472 1474 1475 1477 1478 1480 1481 1483 1484 1485 1486 1488 1489 1490 1491 1493 1494 1495 1496 1497 1498 1499 1500 1501
1460 1460 1460 1460 1460 1460 1461 1460 1460 1461 1461 1462 1463 1464 1465 1466 1467 1468 1469 1470 1471 1473 1474 1476 1477 1478 1480 1481 1482 1483 1484 1486 1487 1488 1489 1490 1491 1492 1493 1494 1496 1496 1498 1498
1460 1459 1459 1459 1459 1460 1460 1459 1459 1459 1460 1461 1461 1462 1463 1465 1466 1467 1468 1470 1471 1472 1473 1475 1476 1477 1479 1480 1481 1482 1483 1485 1486 1487 1488 1489 1490 1491 1492 1493 1494 1494 1495 1496